Home > Weather > Ilulissat > Past weeks

Flag for Greenland Past Weather in Ilulissat, Greenland — Yesterday and Last 2 Weeks

Now
37 °F

Chilly.


Feels Like: 28 °F
Forecast: 33 / 43 °F
Wind: 15 mph from East

Location: Jacobshavn Lufthavn

Current Time: May 31, 2016 at 2:03:00 AM

Latest Report: May 31, 2016 at 12:50 AM


Visibility: N/A

Pressure: 30.12 "Hg

Humidity: 45%

Dew Point: 18 °F

Location of IlulissatLocation

Past Weather in Ilulissat — Graph

°F

Ilulissat Temperature Yesterday

Maximum temperature yesterday: 43 °F (at 8:50 PM)
Minimum temperature yesterday: 30 °F (at 2:50 AM)
Average temperature yesterday: 35 °F

High & Low Weather Summary for the Past Weeks

 TemperatureHumidityPressure
High50 °F (May 24, 3:50 PM)100% (May 18, 3:50 AM)30.15 "Hg (May 18, 3:50 AM)
Low28 °F (May 18, 3:50 AM)30% (May 29, 7:50 AM)29.36 "Hg (May 20, 6:50 AM)
Average36 °F69%29.76 "Hg
* Reported May 16 12:50 AM — May 31 12:50 AM, Ilulissat, Weather by CustomWeather, © 2016

Note: Actual official high and low records may vary slightly from our data, if they occured in-between our weather recording intervals... More about our weather records

Advertising

Ilulissat Weather History for the Previous 24 Hours

Scroll right to see more
 ConditionsComfort  
Time TempWeatherWind HumidityBarometerVisibility
12:50 AM
Tue, May 31
37 °FChilly.15 mph45%30.12 "HgN/A
11:50 PM
Mon, May 30
39 °FChilly.17 mph42%30.15 "HgN/A
10:50 PM39 °FChilly.16 mph42%30.15 "HgN/A
9:50 PM41 °FQuite cool.15 mph39%30.12 "HgN/A
8:50 PM43 °FQuite cool.10 mph36%30.12 "HgN/A
7:50 PM36 °FChilly.6 mph75%30.12 "HgN/A
6:50 PM37 °FChilly.6 mph70%30.12 "HgN/A
5:50 PM36 °FChilly.7 mph75%30.12 "HgN/A
4:50 PM36 °FPassing clouds.8 mph70%30.12 "HgN/A
3:50 PM36 °FScattered clouds.7 mph65%30.12 "HgN/A
2:50 PM36 °FScattered clouds.6 mph65%30.12 "HgN/A
1:50 PM34 °FScattered clouds.6 mph70%30.09 "HgN/A
12:50 PM36 °FScattered clouds.6 mph65%30.09 "HgN/A
11:50 AM34 °FScattered clouds.8 mph60%30.09 "HgN/A
10:50 AM36 °FPartly sunny.3 mph56%30.09 "HgN/A
9:50 AM36 °FPartly sunny.8 mph56%30.07 "HgN/A
8:50 AM34 °FPartly sunny.8 mph60%30.07 "HgN/A
7:50 AM32 °FOvercast.7 mph64%30.04 "HgN/A
6:50 AM30 °FOvercast.7 mph75%30.04 "HgN/A
5:50 AM30 °FMostly cloudy.9 mph80%30.01 "HgN/A
4:50 AM30 °FPartly sunny.10 mph80%29.98 "HgN/A
3:50 AM30 °FOvercast.10 mph86%29.95 "HgN/A
2:50 AM30 °FLow clouds.8 mph86%29.95 "HgN/A
Weather by CustomWeather, © 2016

See weather overviewHow to use our weather pages